Location: Alpine
(43.1636°N, 111.0180°W)
Time: 05:47:51
(UTC+00:00)

Tiros 1 despin weight - Pass Details

Date: 03 June 2022
Orbit: 591 x 639 km, 48.2° (Epoch: 30 June)

Event Time Altitude Azimuth Distance (km) Brightness Sun altitude
Rises 22:36:44 0° 241° (WSW) 2,907 ? 45.0°
Reaches altitude 10° 22:39:03 10° 240° (WSW) 1,995 ? 44.6°
Maximum altitude 22:43:39 83° 155° (SSE) 628 ? 43.7°
Drops below altitude 10° 22:48:11 10° 66° (ENE) 1,971 ? 42.9°
Sets 22:50:29 0° 66° (ENE) 2,869 ? 42.5°
